Regional Weather Roundup
Issued by NWS

Home | Current Version | Previous Version | Graphics & Text | Print | Product List | Glossary On
Versions: 1 2 3 4 5 6 7 8 9 10 11 12 13 14 15 16 17 18 19 20 21 22 23 24 25 26 27 28 29 30 31 32 33 34 35 36 37 38 39 40 41 42 43 44 45 46 47 48 49 50
000
ASUS45 KCYS 272210
RWRWY

WYOMING REGIONAL WEATHER ROUNDUP
NATIONAL WEATHER SERVICE CHEYENNE WY
400 PM MDT MON MAR 27 2017

NOTE:  "FAIR" INDICATES FEW OR NO CLOUDS BELOW 12,000 FEET
WITH NO SIGNIFICANT WEATHER AND/OR OBSTRUCTIONS TO VISIBILITY.

WYZ001-272300-
YELLOWSTONE NATIONAL PARK

CITY           SKY/WX    TMP DP  RH WIND       PRES   REMARKS
LK YELLOWSTONE   N/A     35  28  75 VRB3      29.91R
W YELLOWSTONE  NOT AVBL

$$
WYZ002>013-054>058-071-098>099-272300-
NORTHERN WYOMING

CITY           SKY/WX    TMP DP  RH WIND       PRES   REMARKS
JACKSON        MOSUNNY   43  30  61 CALM      29.86F
CODY           FAIR      53  25  33 SE14G25   29.82R
GREYBULL       FAIR      62  22  21 N6        29.78S
WORLAND        FAIR      58  26  29 SE6       29.78S
SHERIDAN       CLOUDY    59  28  30 N3        29.81S
BUFFALO        LGT RAIN  51  33  50 MISG      29.85R
GILLETTE       PTSUNNY   59  25  27 E7        29.81R
HULETT         FAIR      59  32  36 SE10G16   29.83F
NEWCASTLE      FAIR      59  23  25 SW6       29.81S

$$
WYZ014>020-022>026-101>103-272300-
CENTRAL WYOMING

CITY           SKY/WX    TMP DP  RH WIND       PRES   REMARKS
BIG PINEY      CLOUDY    44  24  45 CALM      29.85F
PINEDALE       FAIR      43  23  45 NW8       29.87S
DUBOIS         MOCLDY    45  19  36 N10G21    29.81F
LANDER         FAIR      54  23  30 NE6       29.78F
RIVERTON       FAIR      53  21  28 E8        29.80F
CASPER         FAIR      58  21  24 VRB3      29.80F
DOUGLAS        FAIR      61  16  17 VRB5      29.80F

$$
WYZ021-027>030-104>119-272300-
SOUTHERN WYOMING

CITY           SKY/WX    TMP DP  RH WIND       PRES   REMARKS
EVANSTON       FOG       33  30  88 N17       29.84S VSB 1/4 WCI  22
KEMMERER         N/A     39  30  70 E9        29.84F WCI  33
ROCK SPRINGS   RAIN      38  33  82 CALM      29.85R
DIXON          RAIN      52  26  37 W9G16     29.82F
RAWLINS        CLOUDY    50  19  29 SE5       29.82F
SARATOGA       CLOUDY    50  23  34 SE7       29.84F
LARAMIE        CLOUDY    49  25  39 S12       29.84F
CHEYENNE       CLOUDY    56  24  29 S10       29.83F
TORRINGTON     FAIR      66  19  16 W14G20    29.77F
PINE BLUFFS    MOCLDY    61  27  27 SE6G22    29.82F

$$



USA.gov is the U.S. government's official web portal to all federal, state and local government web resources and services.